OpenBCM V1.13 (Linux)

Packet Radio Mailbox

DB0FHN

[JN59NK Nuernberg]

 Login: GUEST





  
LU9DCE > KEP      04.04.19 19:34l 254 Lines 12462 Bytes #999 (0) @ WW
BID : 20986_LU9DCE
Read: DF7EAV GUEST DK3UZ
Subj: TLE 04 04
Path: DB0FHN<DB0BLO<DB0ERF<DB0RES<PI8CDR<GB7YEW<LU9DCE
Sent: 190404/1801Z 20986@LU9DCE.TOR.BA.ARG.SOAM LinBPQ6.0.18

            __    _  _  ___  ____   ___  ____    ____  ____  ____
           (  )  / )( \/ _ \(    \ / __)(  __)  (  _ \(  _ \/ ___)
           / (_/\) \/ (\__  )) D (( (__  ) _)    ) _ ( ) _ (\___ \
           \____/\____/(___/(____/ \___)(____)  (____/(____/(____/
               ESTACION DE PACKET RADIO - BUENOS AIRES (GF05OM)
                   BOLETINES INFORMATIVOS PROGRAMADOS (BIP)
                  SOPORTE TECNICO - HELLOCODELINUX@GMAIL.COM

+----------------------------------------------------------------------------+
OSCAR 7
1  7530U 74089B   19093.82569630 -.00000044  00000-0  33619-5 0  9990
2  7530 101.7357  62.2905 0012383 132.2182 342.6631 12.53637462 31010
OSCAR 11 (UoSAT 2)
1 14781U 84021B   19094.06782421  .00000068  00000-0  14462-4 0  9994
2 14781  97.6186 122.3322 0007932 198.3316 161.7614 14.83073325887552
OSCAR 19 (LUSAT)
1 20442U 90005G   19094.39535133 -.00000017  00000-0  10166-4 0  9998
2 20442  98.6423  36.5494 0012124  16.8867 343.2718 14.32921043525596
EYESAT A
1 22825U 93061C   19093.93575175 -.00000010  00000-0  14255-4 0  9995
2 22825  98.8989  80.8625 0007733 213.6922 146.3769 14.30054684331127
ITAMSAT
1 22826U 93061D   19093.95506061 -.00000007  00000-0  15164-4 0  9992
2 22826  98.8929  80.8832 0008441 202.2492 157.8324 14.30387895331324
RADIO ROSTO
1 23439U 94085A   19093.86312083 -.00000071 +00000-0 -80233-3 0  9999
2 23439 064.8153 238.7476 0147961 127.8186 233.6237 11.27568197999345
JAS 2
1 24278U 96046B   19093.90607373 -.00000040 +00000-0 -77323-5 0  9998
2 24278 098.5257 257.6393 0351324 076.6362 287.3689 13.53090146117301
TECHSAT 1B
1 25397U 98043D   19094.34853531 -.00000024  00000-0  87611-5 0  9990
2 25397  98.6827  35.4323 0000266 201.4371 158.6797 14.23662698 77150
ISS (ZARYA)
1 25544U 98067A   19094.65359833  .00002540  00000-0  48234-4 0  9991
2 25544  51.6441   6.7614 0002372 146.9953 282.1094 15.52486407163837
PCSAT
1 26931U 01043C   19093.92315435 -.00000037 +00000-0 +17450-4 0  9995
2 26931 067.0515 199.1980 0005663 277.0122 083.0335 14.30536844914065
SAUDISAT 1C
1 27607U 02058C   19093.90953481 -.00000023  00000-0  17619-4 0  9992
2 27607  64.5538 281.2880 0082396 270.9464  88.2199 14.75531618875855
CUTE-1
1 27844U 03031E   19093.95141134 +.00000042 +00000-0 +38546-4 0  9998
2 27844 098.6865 103.2892 0008735 247.6498 112.3754 14.22167877817483
CUBESAT XI 4
1 27848U 03031J   19093.99239643  .00000030  00000-0  33318-4 0  9998
2 27848  98.6944 103.8123 0008555 260.2804  99.7407 14.21764400817386
MOZHAYETS 4
1 27939U 03042A   19094.39472123  .00000156  00000-0  36615-4 0  9990
2 27939  98.0264 231.7320 0011745 310.1837  49.8358 14.66765645829501
CUBESAT XI 5
1 28895U 05043F   19094.10400460  .00000112  00000-0  30424-4 0  9993
2 28895  97.9462 239.4784 0015856 226.8880 133.0997 14.63644078716422
CUTE-1.7+APD II
1 32785U 08021C   19093.84702120 +.00000192 +00000-0 +26373-4 0  9999
2 32785 097.5495 097.1423 0013889 148.7283 211.4763 14.88271463592334
DELFI C3
1 32789U 08021G   19094.11568925  .00000764  00000-0  55345-4 0  9993
2 32789  97.4732 146.0346 0012918  31.6345 328.5657 15.06760475595589
SEEDS
1 32791U 08021J   19093.79132581 +.00000249 +00000-0 +30628-4 0  9999
2 32791 097.5299 102.9761 0014689 126.9434 233.3133 14.90764648592720
YUBELEINY
1 32953U 08025A   19094.31151631  .00000020  00000-0  75656-4 0  9996
2 32953  82.5072 191.6325 0017768 294.3611  65.5615 12.43088544492945
PRISM (HITOMI)
1 33493U 09002B   19093.57721361  .00000896  00000-0  84164-4 0  9997
2 33493  98.1226  11.6487 0016597  76.7269 283.5801 14.96559537553761
KKS-1 (KISEKI)
1 33499U 09002H   19093.92272346 +.00000064 +00000-0 +17472-4 0  9991
2 33499 098.3546 290.1908 0010514 088.2920 271.9493 14.75419048547626
SWISSCUBE
1 35932U 09051B   19093.94869209 +.00000108 +00000-0 +35483-4 0  9992
2 35932 098.5788 257.7383 0008327 045.4880 314.6996 14.56258775505719
BEESAT
1 35933U 09051C   19093.95638159  .00000094  00000-0  32232-4 0  9995
2 35933  98.5821 259.4666 0006771  58.7853 301.4006 14.56351271505866
ITUPSAT 1
1 35935U 09051E   19094.10797173  .00000074  00000-0  28190-4 0  9993
2 35935  98.5932 259.8653 0009000  53.3682 306.8341 14.55514715505640
XIWANG-1 (HOPE-1)
1 36122U 09072B   19093.73104395 -.00000025  00000-0  44616-4 0  9999
2 36122 100.0753  99.6838 0007965 156.1632 203.9854 13.16349049446887
TISAT 1
1 36799U 10035E   19093.91876808 +.00000240 +00000-0 +30320-4 0  9990
2 36799 098.1439 243.6089 0011634 340.5987 019.4786 14.91040740473271
JUGNU
1 37839U 11058B   19094.23605326  .00000304  00000-0  19958-4 0  9998
2 37839  19.9616  72.3433 0018875 214.6487 261.8667 14.12645998386571
SRMSAT
1 37841U 11058D   19094.23865012  .00000303  00000-0  21533-4 0  9992
2 37841  19.9712 127.5427 0012058  87.8419 343.1302 14.10627931386024
M-CUBED/EXP-1 PRIME
1 37855U 11061F   19093.82674643  .00000801  00000-0  48431-4 0  9992
2 37855 101.7255 310.4457 0174079 301.6896  56.7443 15.05231202405364
HORYU 2
1 38340U 12025D   19094.04082807  .00000148  00000-0  29714-4 0  9990
2 38340  98.3381 130.3259 0011592  12.1501 347.9984 14.75686104370009
STRAND 1
1 39090U 13009E   19093.92804037 +.00000039 +00000-0 +28890-4 0  9992
2 39090 098.4963 301.1235 0009721 147.8924 212.2855 14.35076547319506
SOMP
1 39134U 13015E   19093.89706252 +.00001046 +00000-0 +57584-4 0  9995
2 39134 064.8621 265.9590 0023862 316.0373 043.8855 15.19944034328690
BEESAT 3
1 39135U 13015F   19093.81726969  .00000709  00000-0  45215-4 0  9998
2 39135  64.8662 283.4714 0010725 308.9612  51.0558 15.17289567328736
BEESAT 2
1 39136U 13015G   19093.89213655  .00000648  00000-0  42823-4 0  9994
2 39136  64.8680 286.8195 0011984 303.1826  56.8150 15.16732837328675
CUBEBUG 1
1 39153U 13018D   19094.27245812  .00000184  00000-0  30860-4 0  9992
2 39153  97.9742 192.8436 0018368  84.0996 276.2309 14.80533586320665
ZACUBE
1 39417U 13066B   19093.97114157 +.00000174 +00000-0 +28349-4 0  9999
2 39417 097.5673 111.7101 0057422 282.5728 076.9067 14.81077089289839
TRITON 1
1 39427U 13066M   19093.92383924 +.00000236 +00000-0 +45415-4 0  9997
2 39427 097.6697 076.0137 0115077 048.5955 312.5072 14.67801154287039
GOMX 1
1 39430U 13066Q   19094.33289341  .00000181  00000-0  41440-4 0  9998
2 39430  97.7381  55.8891 0152019 131.3995 230.0390 14.59214363285618
HUMSAT D
1 39433U 13066T   19094.10567747  .00000301  00000-0  34767-4 0  9993
2 39433  97.5632 144.6640 0030665 190.0142 170.0470 14.92119973291803
CUBEBUG 2
1 39440U 13066AA  19093.95092450 +.00000201 +00000-0 +35120-4 0  9990
2 39440 097.6019 096.8630 0079567 332.0558 027.6390 14.75815925287603
FUNCUBE 1
1 39444U 13066AE  19094.01330444  .00000221  00000-0  33694-4 0  9996
2 39444  97.5660 113.6193 0056501 276.4702  83.0081 14.81887729288720
UWE-3
1 39446U 13066AG  19093.94937341 +.00000183 +00000-0 +31109-4 0  9994
2 39446 097.5833 103.7858 0068763 308.0143 051.4873 14.78350528287484
SPROUT
1 39770U 14029E   19094.28058616  .00000704  00000-0  84226-4 0  9998
2 39770  97.8794 198.1011 0008491 343.3176  16.7753 14.87237262263622
UNISAT 6
1 40012U 14033C   19093.91524230 +.00000163 +00000-0 +31749-4 0  9994
2 40012 097.7692 323.7405 0058032 343.7609 016.1739 14.73944471257525
DUCHIFAT 1
1 40021U 14033M   19093.89022962  .00000308  00000-0  37396-4 0  9991
2 40021  97.9229  18.2437 0011759 304.6318  55.3790 14.90561941260254
QB50P1
1 40025U 14033R   19093.89402583  .00000237  00000-0  31319-4 0  9996
2 40025  97.9067  13.7011 0011414 314.2312  45.7967 14.88894070260040
CHUBUSAT 1
1 40300U 14070C   19094.52160779  .00000670  00000-0  32284-4 0  9995
2 40300  97.3340 170.5910 0019238 324.8421 160.3410 15.21973761244585
NUDT-PHONESAT
1 40900U 15049B   19094.47388994  .00001968  00000-0  87904-4 0  9993
2 40900  97.4398 104.5561 0014993  88.6646  68.7140 15.22449669196214
ZDPS 2A
1 40901U 15049C   19094.31954089  .00000662  00000-0  36248-4 0  9996
2 40901  97.4612 101.2366 0015440 103.6832  10.9235 15.17579814195802
ZDPS 2B
1 40902U 15049D   19094.39920813  .00001153  00000-0  60986-4 0  9995
2 40902  97.4546  98.9156 0015453 100.2443   7.5894 15.17356885195795
XW-2A
1 40903U 15049E   19094.49055830  .00001925  00000-0  47754-4 0  9990
2 40903  97.3487 136.8018 0015603  62.3270  43.3254 15.41538706198669
KAITUO 1A
1 40904U 15049F   19094.52458527  .00000451  00000-0  27380-4 0  9991
2 40904  97.4668  97.8262 0016452 106.0486  10.7051 15.15286908195617
OBJECT G
1 40905U 15049G   19094.35251074  .00000219  00000-0  15533-4 0  9990
2 40905  97.4696  95.3038 0017419 101.0303   9.4371 15.14217840195472
XW-2C
1 40906U 15049H   19094.40695853  .00000817  00000-0  46423-4 0  9990
2 40906  97.4675  97.7396 0016755  98.8696  10.9477 15.15566604195596
XW-2D
1 40907U 15049J   19094.39332763  .00000827  00000-0  46710-4 0  9997
2 40907  97.4654  97.4057 0016261  96.3608  11.4767 15.15746066195605
LILACSAT 2
1 40908U 15049K   19094.44791881  .00000043  00000-0  60113-5 0  9998
2 40908  97.4781  96.4239 0017812 101.2928  56.9468 15.13733655195422
XW-2F
1 40910U 15049M   19094.29641150  .00000814  00000-0  44299-4 0  9999
2 40910  97.4630  99.1515 0016857  91.4449  34.5364 15.17119231195587
XW-2B
1 40911U 15049N   19094.42844943  .00000527  00000-0  31077-4 0  9991
2 40911  97.4684  98.0686 0016043  96.5277  43.2249 15.15676475195503
KAITUO 1B
1 40912U 15049P   19094.30965442  .00000943  00000-0  47618-4 0  9997
2 40912  97.4524 102.6453 0017019  78.0036  47.4654 15.19408817195865
TIANWANG 1C (TW-1C)
1 40926U 15051B   19094.42636229  .00010683  00000-0  16651-3 0  9990
2 40926  97.1467 140.7433 0006270 293.8974 190.7897 15.54018117198468
